Hourly Data Report for April 07, 2018

KUGAARUK CLIMATE
NUNAVUT
Current Station Operator: ECCC - MSC

68°32'15.060" N
89°47'47.020" W
15.80 m
2303094
71407
NBB

Download Data

Hourly Data (April 2018)
Hourly Data Report for April 7, 2018
TIME
LST
Temp Definition
°C
Dew Point Definition
°C
Rel Hum Definition
%
Precip. Amount Definition
mm

Wind Dir Definition
10's deg

Wind Spd Definition
km/h
Visibility Definition
km
Stn Press Definition
kPa
Hmdx Definition


Wind Chill Definition


Weather Definition


00:00 -28.9 -32.6 71 0.0 24 27   101.45   -44 LegendNANA
01:00 -28.7 -32.6 69 0.0 26 18   101.44   -41 LegendNANA
02:00 -27.7 -31.5 70 0.0 24 29   101.38   -42 LegendNANA
03:00 -28.5 -32.4 69 0.0 25 26   101.35   -43 LegendNANA
04:00 -27.3 -31.1 70 0.0 23 32   101.26   -42 LegendNANA
05:00 -27.4 -31.4 68 0.0 23 24   101.28   -41 LegendNANA
06:00 -26.4 -30.9 66 0.0 23 25   101.20   -40 LegendNANA
07:00 -25.4 -30.2 64 0.0 23 27   101.14   -39 LegendNANA
08:00 -25.0 -29.7 65 0.0 23 27   101.11   -38 LegendNANA
09:00 -24.4 -29.0 66 0.0 23 23   101.07   -37 LegendNANA
10:00 -23.2 -27.4 68 0.0 22 26   101.02   -36 LegendNANA
11:00 -21.6 -25.5 71 0.0 24 28   100.99   -34 LegendNANA
12:00 -21.3 -26.0 66 0.0 26 21   100.97   -32 LegendNANA
13:00 -21.3 -26.3 64 0.0 26 23   100.99   -33 LegendNANA
14:00 -21.2 -26.1 65 0.0 27 23   100.96   -33 LegendNANA
15:00 -21.2 -26.1 65 0.0 27 21   100.96   -32 LegendNANA
16:00 -21.5 -26.0 67 0.0 26 18   100.96   -32 LegendNANA
17:00 -22.2 -26.1 70 0.0 24 16   100.96   -32 LegendNANA
18:00 -22.9 -25.9 77 0.0 25 15   100.92   -33 LegendNANA
19:00 -21.1 -23.8 79 0.0 24 17   100.90   -31 LegendNANA
20:00 -21.2 -24.2 77 0.0 26 17   100.88   -31 LegendNANA
21:00 -21.1 -23.7 79 0.0 25 15   100.86   -30 LegendNANA
22:00 -21.4 -24.0 79 0.0 27 13   100.85   -30 LegendNANA
23:00 -21.5 -24.4 77 0.0 27 18   100.84   -32 LegendNANA

Notes on Data Quality.

Legend

  • E = Estimated
  • M = Missing
  • NA = Not Available*
  • [empty] = Indicates an unobserved value
Date modified: